Location: Dackenheim
(49.5215°N, 8.1854°E)
Time: 19:24:56
(UTC+00:00)

Cosmos 2218 Rocket - Pass Details

Date: 19 May 2025
Orbit: 954 x 1006 km, 82.9° (Epoch: 20 June)

Event Time Altitude Azimuth Distance (km) Brightness Sun altitude
Rises 20:31:56 0° 352° (N) 3,740 8.1 -10.8°
Reaches altitude 10° 20:34:32 10° 356° (N) 2,781 7.3 -11.0°
Maximum altitude 20:40:51 61° 76° (ENE) 1,120 4.2 -11.7°
Enters shadow 20:46:02 15° 154° (SSE) 2,362 5.4 -12.2°
